Location: Waco, TX
(31.5480°N, 97.1670°W)
Time: 22:58:47
(UTC-05:00)

ISS - Pass Details

Date: 18 April 2018
Orbit: 403 x 406 km, 51.6° (Epoch: 23 April)

Event Time Altitude Azimuth Distance (km) Brightness Sun altitude
Rises 18:59:47 0° 308° (NW) 2,324 1.1 11.7°
Reaches altitude 10° 19:01:56 10° 301° (WNW) 1,461 0.5 11.3°
Maximum altitude 19:05:03 41° 229° (SW) 597 -2.3 10.6°
Drops below altitude 10° 19:08:09 10° 157° (SSE) 1,454 -1.3 9.9°
Sets 19:10:17 0° 150° (SSE) 2,310 -0.4 9.5°
